Regional Weather Roundup
Issued by NWS

Home | Current Version | Previous Version | Graphics & Text | Print | Product List | Glossary On
Versions: 1 2 3 4 5 6 7 8 9 10 11 12 13 14 15 16 17 18 19 20 21 22 23 24 25 26 27 28 29 30 31 32 33 34 35 36 37 38 39 40 41 42 43 44 45 46 47 48 49 50
000
ASUS45 KCYS 011410
RWRWY

WYOMING REGIONAL WEATHER ROUNDUP
NATIONAL WEATHER SERVICE CHEYENNE WY
800 AM MDT WED OCT 01 2014

NOTE:  "FAIR" INDICATES FEW OR NO CLOUDS BELOW 12,000 FEET
WITH NO SIGNIFICANT WEATHER AND/OR OBSTRUCTIONS TO VISIBILITY.

WYZ001-011500-
YELLOWSTONE NATIONAL PARK

CITY           SKY/WX    TMP DP  RH WIND       PRES   REMARKS
LK YELLOWSTONE   N/A     30  26  85 VRB3      30.04R
W YELLOWSTONE  NOT AVBL

$$
WYZ002>013-054>058-071-098>099-011500-
NORTHERN WYOMING

CITY           SKY/WX    TMP DP  RH WIND       PRES   REMARKS
JACKSON        CLOUDY    37  37 100 CALM      30.00R
CODY           CLOUDY    45  43  93 CALM      29.95R
GREYBULL       LGT RAIN  49  37  63 N20       29.91R
WORLAND        CLOUDY    46  43  89 SW7       29.92R
SHERIDAN       CLOUDY    47  40  76 NW12      29.93R
BUFFALO        LGT RAIN  43  39  86 NW21G28   29.93R
GILLETTE       CLOUDY    46  42  86 NW13      29.89R
HULETT         CLOUDY    46  41  81 NW6       29.88
NEWCASTLE      CLOUDY    48  43  81 NW12      29.87

$$
WYZ014>020-022>026-101>103-011500-
CENTRAL WYOMING

CITY           SKY/WX    TMP DP  RH WIND       PRES   REMARKS
BIG PINEY      PTCLDY    30  26  85 E6        30.00R WCI  24
PINEDALE       PTSUNNY   32  32 100 W5        30.00R WCI  27
DUBOIS         CLOUDY    36  30  80 N6        29.95R WCI  31
LANDER         PTCLDY    40  36  86 CALM      29.93R
RIVERTON       CLOUDY    42  36  79 N8        29.94R
CASPER         LGT RAIN  43  40  89 N8        29.92R
DOUGLAS        LGT RAIN  47  45  93 NW6       29.91S FOG

$$
WYZ021-027>030-104>119-011500-
SOUTHERN WYOMING

CITY           SKY/WX    TMP DP  RH WIND       PRES   REMARKS
EVANSTON       MOCLDY    33  28  81 W10       30.04R WCI  25
FORT BRIDGER   CLOUDY    35  34  99 W7        30.04R WCI  29
ROCK SPRINGS   MOCLDY    35  32  88 W5        29.99R WCI  31
DIXON          CLOUDY    41  39  94 CALM      30.01R
RAWLINS        PTCLDY    37  33  85 W14       29.98R WCI  28
SARATOGA       FAIR      37  34  87 CALM      30.00R
LARAMIE        PTSUNNY   39  32  76 W5        29.96R
CHEYENNE       PTSUNNY   49  33  54 NW10      29.91S
TORRINGTON     MOSUNNY   46  44  93 CALM      29.87R
PINE BLUFFS    CLOUDY    45  41  87 CALM      29.91R

$$


USA.gov is the U.S. government's official web portal to all federal, state and local government web resources and services.